Location: Latina
(41.4670°N, 12.8670°E)
Time: 17:04:33
(UTC+02:00)

ISS - Pass Details

Date: 14 May 2021
Orbit: 417 x 422 km, 51.6° (Epoch: 18 June)

Event Time Altitude Azimuth Distance (km) Brightness Sun altitude
Rises 04:27:04 0° 307° (NW) 2,375 -0.1 -13.8°
Reaches altitude 10° 04:29:11 10° 310° (NW) 1,508 -1.0 -13.5°
Maximum altitude 04:32:33 64° 33° (NNE) 470 -3.3 -13.1°
Drops below altitude 10° 04:35:54 10° 116° (ESE) 1,503 -0.6 -12.6°
Sets 04:38:00 0° 119° (ESE) 2,364 0.4 -12.3°
